sat.trackr.live / text

‹ back to catalog

STARLINK-30870

NORAD 58369 · 2023-177U

PAYLOAD ACTIVE UNKNOWN

§ Identity

Operator
Country
US
Launch date
2023-11-18
Launch site
AFETR
Launch vehicle
Mass (kg)
RCS (m²)

Purposes: comms

External: N2YO · Heavens-Above · Gunter

§ Orbital elements

Epoch: 2026-05-24T17:32:25.326816Z

Period
94.27 min
Inclination
43.0003°
Eccentricity
0.0001316
Mean motion
15.27586077 rev/d
Perigee alt
482.1 km
Apogee alt
483.9 km
Semi-major
6,861.2 km
B*
1.2780e-4
RAAN
281.4408°
Arg perigee
278.0587°
Mean anomaly
82.0116°
Rev number
13,985

§ Raw data

STARLINK-308701 58369U 23177U   26144.73084869  .00003257  00000+0  12780-3 0  99902 58369  43.0003 281.4408 0001316 278.0587  82.0116 15.27586077139850

JSON: /api/v1/satellites/58369 · /tle

For live sub-satellite position, see the globe view (requires WebGL).

§ Visibility from observer

Set your observer location to see the next 7 days of passes ≥ 10°. The values pass through the URL so the page stays shareable.

No JS? Fill the form by hand. The geolocation button needs JavaScript.